• Processing (Info)

  • MPEC 2023-F145 : 2023 FD4

    The following Minor Planet Electronic Circular may be linked-to from your own Web pages, but must not otherwise be redistributed electronically.

    A form allowing access to any MPEC is at the bottom of this page.


    Read MPEC 2023-F144 Read MPEC 2023-F146


    M.P.E.C. 2023-F145                               Issued 2023 March 26, 14:30 UT
    
         The Minor Planet Electronic Circulars contain information on unusual
             minor planets, routine data on comets and natural satellites,
             and occasional editorial announcements.  They are published
        on behalf of Division F of the International Astronomical Union by the
              Minor Planet Center, Smithsonian Astrophysical Observatory,
                              Cambridge, MA 02138, U.S.A.
    			  
                 Prepared using the Tamkin Foundation Computer Network
    
                                  MPC@CFA.HARVARD.EDU
                URL https://www.minorplanetcenter.net/    ISSN 1523-6714
    
                                    2023 FD4                                 
    
    
    Observations:
         K23F04D* C2023 03 25.43433711 57 19.990+02 44 50.21         17.24oVEF145T05
         K23F04D  C2023 03 25.44158511 57 31.034+02 47 01.21         17.71oVEF145T05
         K23F04D  C2023 03 25.45088311 57 45.211+02 49 50.70         17.17oVEF145T05
         K23F04D  C2023 03 25.45996811 57 59.016+02 52 35.40         17.61oVEF145T05
         K23F04D 1C2023 03 25.82040 12 07 24.15 +04 28 23.7          18.9 VXEF145033
         K23F04D 1C2023 03 25.82076 12 07 24.61 +04 28 29.1          19.1 VXEF145033
         K23F04D 1C2023 03 25.82112 12 07 25.07 +04 28 34.7          18.8 VXEF145033
         K23F04D  C2023 03 25.90185712 09 06.49 +04 48 31.9          17.5 RoEF145K88
         K23F04D  C2023 03 25.90222012 09 06.93 +04 48 37.6          17.4 RoEF145K88
         K23F04D  C2023 03 25.90258512 09 07.39 +04 48 42.7          17.5 RoEF145K88
         K23F04D  C2023 03 25.90294912 09 07.84 +04 48 47.7          17.5 RoEF145K88
         K23F04D  C2023 03 25.90331212 09 08.28 +04 48 52.9          17.5 RoEF145K88
         K23F04D KC2023 03 25.91267212 09 21.66 +04 51 15.6          17.9 GXEF145595
         K23F04D KC2023 03 25.91850612 09 28.74 +04 52 38.2          17.9 GXEF145595
         K23F04D KC2023 03 25.92420312 09 35.68 +04 53 59.0          18.0 GXEF145595
         K23F04D KC2023 03 25.94072912 09 55.55 +04 57 54.2          18.2 GVEF145L01
         K23F04D KC2023 03 25.94221012 09 57.32 +04 58 14.8          17.9 GVEF145L01
         K23F04D KC2023 03 25.94369212 09 59.10 +04 58 35.5          17.8 GVEF145L01
         K23F04D KC2023 03 25.94517212 10 00.87 +04 58 56.4          17.7 GVEF145L01
         K23F04D KC2023 03 25.94591212 10 01.76 +04 59 06.7          17.8 GVEF145L01
         K23F04D KC2023 03 25.96414 12 10 23.05 +05 03 58.9          17.9 VqEF145M48
         K23F04D KC2023 03 25.97929 12 10 40.77 +05 07 27.6          18.3 VqEF145M48
         K23F04D KC2023 03 25.98454 12 10 49.313+05 08 04.96         18.3 VqEF145C77
         K23F04D KC2023 03 25.98819 12 10 53.599+05 08 55.07         18.6 VqEF145C77
         K23F04D KC2023 03 25.99023 12 11 15.07 +05 16 17.3          17.2 RVEF145X31
         K23F04D KC2023 03 25.99272 12 10 58.898+05 09 56.74         18.3 VqEF145C77
         K23F04D KC2023 03 25.99414 12 11 00.19 +05 10 08.7                VEF145204
         K23F04D KC2023 03 25.99876 12 11 05.59 +05 11 11.4                VEF145204
         K23F04D KC2023 03 26.00002 12 11 04.77 +05 12 09.5          18.2 VqEF145M48
         K23F04D KC2023 03 26.00313 12 11 10.68 +05 12 10.9          17.9 GVEF145204
         K23F04D KC2023 03 26.01268 12 11 41.99 +05 21 22.6          17.2 RVEF145X31
         K23F04D KC2023 03 26.02180 12 11 52.78 +05 23 25.9          17.4 RVEF145X31
         K23F04D KC2023 03 26.03173 12 11 47.13 +05 19 00.9          18.4 GVEF145J27
         K23F04D KC2023 03 26.03707 12 11 53.19 +05 20 12.0          18.4 GVEF145J27
         K23F04D KC2023 03 26.05692 12 12 15.63 +05 24 34.6          18.4 GVEF145J27
         K23F04D KC2023 03 26.08945712 13 05.154+05 37 25.48         18.0 GXEF145Y00
         K23F04D KC2023 03 26.09375212 13 09.785+05 38 20.94         17.9 GXEF145Y00
         K23F04D KC2023 03 26.09805412 13 14.409+05 39 16.32         17.9 GXEF145Y00
         K23F04D KC2023 03 26.11492 12 13 42.59 +05 37 29.1          17.6 GVEF145W46
         K23F04D KC2023 03 26.11640 12 13 44.24 +05 37 48.1          17.5 GVEF145W46
         K23F04D KC2023 03 26.11926 12 13 47.40 +05 38 25.1          18.0 GVEF145W46
         K23F04D KC2023 03 26.13151912 14 02.36 +05 40 39.6          18.2 GVEF145H21
         K23F04D KC2023 03 26.13344812 14 04.48 +05 41 04.4          18.2 GVEF145H21
         K23F04D KC2023 03 26.13537712 14 06.60 +05 41 29.1          18.3 GVEF145H21
         K23F04D KC2023 03 26.13730712 14 08.73 +05 41 53.6          18.2 GVEF145H21
         K23F04D KC2023 03 26.13923612 14 10.84 +05 42 18.1          18.2 GVEF145H21
         K23F04D KC2023 03 26.14161512 14 13.46 +05 42 48.5          18.2 GVEF145H21
         K23F04D KC2023 03 26.15997 12 14 20.618+05 52 28.02         17.8 GXEF145X93
         K23F04D KC2023 03 26.16163 12 14 22.361+05 52 49.15         18.1 GXEF145X93
         K23F04D KC2023 03 26.16330 12 14 24.096+05 53 10.21         17.9 GXEF145X93
         K23F04D KC2023 03 26.24245 12 16 02.11 +06 03 39.6          18.3 VqEF145H36
         K23F04D KC2023 03 26.24465 12 16 04.38 +06 04 06.1          18.3 VqEF145H36
         K23F04D KC2023 03 26.24684 12 16 06.63 +06 04 32.5          18.5 VqEF145H36
         K23F04D 1C2023 03 26.30131512 17 05.924+06 15 47.88         18.17GVEF145703
         K23F04D 1C2023 03 26.30654812 17 11.098+06 16 49.26         18.07GVEF145703
         K23F04D 1C2023 03 26.31178212 17 16.249+06 17 50.32         18.08GVEF145703
         K23F04D 1C2023 03 26.31702712 17 21.325+06 18 51.23         18.14GVEF145703
         K23F04D 1C2023 03 26.32322612 17 27.366+06 20 03.26         18.35GVEF145703
         K23F04D 1C2023 03 26.32854612 17 32.550+06 21 04.00         18.52GVEF145703
         K23F04D 1C2023 03 26.33387212 17 37.759+06 22 05.92         18.14GVEF145703
    
    Observer details:
    033 Karl Schwarzschild Observatory, Tautenburg.  Observers S. Melnikov, C.
        Hoegner, F. Ludwig, B. Stecklum.  Measurer B. Stecklum.  1.34-m f/3
        Schmidt + CCD.
    204 Schiaparelli Observatory.  Observer L. Buzzi.  0.84-m f/3.5 reflector +
        CCD.
    595 Farra d'Isonzo.  Observers S. Aschi, E. Pettarin.  Measurer E. Pettarin.
        0.61-m f/4.5 reflector + CCD.
    703 Catalina Sky Survey.  Observer K. W. Wierzchos.  Measurers E. J.
        Christensen, D. Fay, J. B. Fazekas, D. C. Fuls, A. R. Gibbs, A. D. Grauer,
        H. Groeller, J. K. Hogan, R. A. Kowalski, S. M. Larson, G. J. Leonard, D.
        Rankin, R. L. Seaman, A. Serrano, F. C. Shelly, K. W. Wierzchos.  0.68-m
        Schmidt + 10K CCD.
    C77 Bernezzo Observatory.  Observer A. Mantero.  0.25-m f/4.0 reflector + CCD.
    H21 Astronomical Research Observatory, Westfield.  Observer R. Holmes.
        Measurers T. Linder, R. Holmes, L. Horn.  0.76-m f/3.0 astrograph + CCD.
    H36 Sandlot Observatory, Scranton.  Observer G. Hug.  0.56-m f/4.8 .56 meter
        reflector + CCD.
    J27 El Guijo Observatory.  Observer A. San Segundo.  0.30-m f/4 Reflector +
        CCD.
    K88 GINOP-KHK, Piszkesteto.  Observer K. Sarneczky.  0.60-m Schmidt + CCD.
    L01 Visnjan Observatory, Tican.  Observer K. Korlevic.  1.0-m f/2.9 reflector
        + CCD.
    M48 GAC - Via L. Sturzo Observatory, Catania.  Observers C. Arena, G. Marino.
        Measurer C. Arena.  0.25-m f/5.0 reflector + CCD.
    T05 ATLAS-HKO, Haleakala.  Observers L. Denneau, R. Siverd, J. Tonry, H.
        Weiland.  Measurers L. Denneau, N. Erasmus, A. Fitzsimmons, A. Lawrence,
        J. Robinson, R. Siverd, J. Tonry, H. Weiland.  0.5-m Reflector + CCD.
    W46 Foxfire Village.  Observer J. Haidet.  .36-m f/6.3 Ritchey-Chretien + CCD.
    X31 Galileo Galilei Observatory, Oro Verde.  Observer C. Fornari.  Measurers
        C. Fornari, F. Alsina.  0.40-m F/8 Ritchey Chretien + CCD.
    X93 Munhoz Observatory.  Observer A. Brossel.  0.11-m f/5.0 Refractor + CCD.
    Y00 SONEAR Observatory, Oliveira.  Observer C. Jacques.  0.45-m f/2.9
        reflector + CCD.
    
    Orbital elements:
    2023 FD4                                                 Earth MOID = 0.0092 AU
    Epoch 2023 Feb. 25.0 TT = JDT 2460000.5                 Veres                   
    M  10.60190              (2000.0)            P               Q                  
    n   0.53300237     Peri.  295.26519     -0.48496522     -0.87446608             
    a   1.5065491      Node   183.79807     +0.84971216     -0.46822841             
    e   0.4438551      Incl.    9.43133     +0.20687674     -0.12677240             
    P   1.85           H   25.63          G   0.15           U   7                  
    Residuals in seconds of arc
    230325 T05  1.1+  1.5+    230325 M48  1.1+  0.3+    230326 W46  0.7-  1.1-
    230325 T05  0.1+  0.3-    230325 M48  1.5+  0.7+    230326 H21  0.1+  0.1-
    230325 T05  0.2-  0.3-    230325 C77  0.1+  0.0     230326 H21  0.0   0.0
    230325 T05  0.4-  0.2-    230325 C77  0.2+  0.2+    230326 H21  0.0   0.1+
    230325 033  0.4+  0.1-    230325 X31  0.2+  0.4-    230326 H21  0.1+  0.1-
    230325 033  0.2+  0.1-    230325 C77  0.4+  0.1+    230326 H21  0.0   0.2-
    230325 033  0.0   0.1+    230325 204  0.0   0.2-    230326 H21  0.2+  0.1-
    230325 K88  0.1-  0.4-    230325 204  0.1+  0.2-    230326 X93  0.4+  0.6-
    230325 K88  0.2-  0.1+    230326 M48  0.9+  0.5+    230326 X93  0.4+  0.1-
    230325 K88  0.0   0.0     230326 204  0.1+  0.1+    230326 X93  0.3+  0.3+
    230325 K88  0.0   0.2-    230326 X31  0.3+  0.4-    230326 H36  0.1-  0.2+
    230325 K88  0.1-  0.2-    230326 X31  0.8+  0.0     230326 H36  0.3+  0.2+
    230325 595  0.3+  0.5+    230326 J27  0.1-  0.1+    230326 H36  0.5+  0.2+
    230325 595  0.1-  0.2+    230326 J27  0.2-  0.1+    230326 703  0.3-  0.8-
    230325 595  0.3+  0.3+    230326 J27  0.6-  0.3+    230326 703  0.1+  0.4-
    230325 L01  0.0   0.1-    230326 Y00  0.4+  0.2-    230326 703  0.4+  0.3-
    230325 L01  0.1-  0.2-    230326 Y00  0.3+  0.2-    230326 703  0.4-  0.2-
    230325 L01  0.0   0.2-    230326 Y00  0.2+  0.3-    230326 703  0.4-  0.2+
    230325 L01  0.1-  0.1-    230326 W46  1.0-  1.2-    230326 703  0.4-  0.3-
    230325 L01  0.0   0.1-    230326 W46  0.8-  1.2-    230326 703  0.2+  0.4+
    
    Ephemeris:
    2023 FD4                 a,e,i = 1.51, 0.44, 9                   q = 0.8379
    Date    TT    R. A. (2000) Decl.     Delta      r    Elong.  Phase     V
    2023 02 24    01 32 50.1 -19 22 21   0.1866  0.8701    45.9   125.2    26.9
    ...
    2023 03 11    01 59 25.9 -22 15 40   0.08053 0.9349    42.1   134.6    26.2
    ...
    2023 03 19    03 02 26.0 -29 06 51   0.02704 0.9795    53.4   125.3    23.0
    ...
    2023 03 25    11 43 27.0 +00 16 04   0.01915 1.0160   172.2     7.6    17.6
    2023 03 26    12 11 08.5 +05 15 05   0.02519 1.0223   172.7     7.1    18.2
    2023 03 27    12 28 05.9 +08 13 40   0.03158 1.0286   169.3    10.3    18.8
    ...
    2023 04 02    13 04 40.8 +14 10 56   0.07225 1.0676   160.4    18.3    21.0
    ...
    2023 04 10    13 16 31.2 +15 35 00   0.1293  1.1215   156.7    20.6    22.5
    ...
    2023 04 25    13 23 23.2 +14 49 55   0.2459  1.2252   150.1    24.1    24.2
    
    M. P. C. Staff               (C) Copyright 2023 MPC           M.P.E.C. 2023-F145
    


    Read MPEC 2023-F144 Read MPEC 2023-F146


    MPEC number:

    Enter an MPEC number in one of the following forms:

    • 1997-B01 (the full form)
    • J97B01 (the packed version of the full form)
    • B01 (the abbreviated form)